Location: Newark
(27.9675°N, 86.8869°E)
Time: 03:43:51
(UTC+00:00)

deb Explorer IX - Pass Details

Date: 31 October 2019
Orbit: 546 x 1105 km, 38.8° (Epoch: 20 November)

Event Time Altitude Azimuth Distance (km) Brightness Sun altitude
Rises 09:26:04 0° 290° (WNW) 3,128 ? 24.1°
Reaches altitude 10° 09:28:28 10° 282° (WNW) 2,291 ? 23.6°
Maximum altitude 09:33:29 38° 215° (SW) 1,263 ? 22.7°
Drops below altitude 10° 09:39:17 10° 149° (SSE) 2,651 ? 21.6°
Sets 09:42:15 0° 142° (SE) 3,682 ? 21.0°
